HB9EFX-14 Weather Reports


Display with metric or nautical units.
time (UTC)temp
F
wind
direction
speed
MPH
gust
MPH
rain 1hr
in
rain 24hr
in
rain mn
in
humidity
%
barometer
mb
20260504081339 62 98 2.0 2.0 0.00 0.00 0.00 65 1014.1
20260504080335 60 76 0.0 4.0 0.00 0.00 0.00 67 1014.3
20260504070332 56 100 3.0 3.0 0.00 0.00 0.00 75 1014.1
20260504050327 48 91 4.0 4.0 0.00 0.00 0.00 83 1014.5
20260504045330 47 84 6.0 7.0 0.00 0.00 0.00 86 1014.6
20260504044323 48 52 3.0 5.0 0.00 0.00 0.00 85 1014.5
20260504043322 47 92 5.0 7.0 0.00 0.00 0.00 85 1014.3
20260504042323 47 115 4.0 5.0 0.00 0.00 0.00 85 1014.3
20260504041323 47 89 4.0 6.0 0.00 0.00 0.00 85 1014.2
20260504040322 47 98 5.0 6.0 0.00 0.00 0.00 86 1014.5
20260504035319 47 106 5.0 7.0 0.00 0.00 0.00 85 1014.4
20260504034319 46 116 5.0 7.0 0.00 0.00 0.00 86 1014.4
20260504033319 47 102 6.0 6.0 0.00 0.00 0.00 85 1014.4
20260504032318 47 110 6.0 9.0 0.00 0.00 0.00 86 1014.6
20260504031318 46 99 6.0 8.0 0.00 0.00 0.00 86 1014.7
20260504030315 47 95 4.0 6.0 0.00 0.00 0.00 86 1014.5
20260504025316 46 115 4.0 9.0 0.00 0.00 0.00 87 1014.8
20260504024316 47 113 5.0 8.0 0.00 0.00 0.00 85 1015.0
20260504023315 48 97 4.0 6.0 0.00 0.00 0.00 83 1014.8
20260504022315 48 89 7.0 8.0 0.00 0.00 0.00 83 1014.6
20260504021313 47 97 4.0 5.0 0.00 0.00 0.00 85 1014.9
20260504020314 48 95 4.0 5.0 0.00 0.00 0.00 85 1014.8
20260504015310 49 99 5.0 5.0 0.00 0.00 0.00 79 1014.9
20260504014310 49 95 3.0 6.0 0.00 0.00 0.00 80 1014.9
20260504013311 50 95 5.0 5.0 0.00 0.00 0.00 77 1014.9
20260504012311 52 92 3.0 3.0 0.00 0.00 0.00 74 1015.0
20260504011310 52 91 5.0 7.0 0.00 0.00 0.00 73 1014.9
20260504010306 50 94 5.0 5.0 0.00 0.00 0.00 79 1014.8
20260504005307 49 92 5.0 6.0 0.00 0.00 0.00 81 1014.9
20260504004307 49 93 4.0 6.0 0.00 0.00 0.00 80 1014.9
20260504003307 51 95 3.0 4.0 0.00 0.00 0.00 76 1014.9
20260504002306 51 97 7.0 7.0 0.00 0.00 0.00 76 1014.9
20260504001305 53 94 5.0 5.0 0.00 0.00 0.00 73 1015.1
20260504000304 53 92 4.0 6.0 0.00 0.00 0.00 72 1015.0
20260503235304 53 96 6.0 6.0 0.00 0.00 0.00 75 1015.1
20260503234305 53 93 4.0 4.0 0.00 0.00 0.00 74 1015.0
20260503233304 53 93 5.0 5.0 0.00 0.00 0.00 72 1015.2
20260503232300 54 103 2.0 5.0 0.00 0.00 0.00 71 1015.1
20260503231300 54 95 4.0 6.0 0.00 0.00 0.00 70 1015.2
20260503230301 54 95 5.0 6.0 0.00 0.00 0.00 70 1015.5
20260503225302 55 106 3.0 3.0 0.00 0.00 0.00 67 1015.3
20260503224300 55 98 2.0 3.0 0.00 0.00 0.00 66 1015.3
20260503223257 55 99 2.0 4.0 0.00 0.00 0.00 65 1015.2
20260503222257 55 100 3.0 6.0 0.00 0.00 0.00 67 1015.3
20260503221257 55 87 5.0 7.0 0.00 0.00 0.00 66 1015.1
20260503220257 55 96 4.0 5.0 0.00 0.00 0.00 64 1015.2
20260503215257 54 99 4.0 4.0 0.00 0.00 0.00 66 1015.5
20260503214255 54 102 4.0 4.0 0.00 0.00 0.00 69 1015.6
20260503213255 54 97 5.0 6.0 0.00 0.00 0.00 74 1015.6
20260503212255 54 100 4.0 5.0 0.00 0.00 0.00 72 1015.3
20260503211255 54 96 4.0 4.0 0.00 0.00 0.00 70 1015.3
20260503210255 55 96 4.0 5.0 0.00 0.00 0.00 70 1015.2
20260503205250 55 103 4.0 5.0 0.00 0.00 0.00 71 1015.5
20260503204251 55 94 4.0 4.0 0.00 0.00 0.00 72 1015.4
20260503203250 55 99 4.0 6.0 0.00 0.00 0.00 72 1015.4
20260503202250 55 99 4.0 5.0 0.00 0.00 0.00 74 1015.5
20260503201250 55 102 2.0 3.0 0.00 0.00 0.00 74 1015.4
20260503200247 55 96 3.0 4.0 0.00 0.00 0.00 72 1015.2
20260503195247 56 97 3.0 3.0 0.00 0.00 0.00 72 1015.3
20260503194248 56 99 3.0 4.0 0.00 0.00 0.00 72 1015.0
20260503193247 56 95 5.0 5.0 0.00 0.00 0.00 71 1015.0
20260503192247 56 95 3.0 4.0 0.00 0.00 0.00 71 1014.9
20260503191243 57 93 3.0 4.0 0.00 0.00 0.00 70 1014.9
20260503190243 56 92 2.0 4.0 0.00 0.00 0.00 70 1014.8
20260503185244 57 97 3.0 4.0 0.00 0.00 0.00 70 1014.6
20260503184244 57 104 2.0 4.0 0.00 0.00 0.00 69 1014.9
20260503183243 57 130 2.0 2.0 0.00 0.00 0.00 68 1014.6
20260503182240 58 93 2.0 4.0 0.00 0.00 0.00 67 1014.5
20260503181241 58 143 1.0 4.0 0.00 0.00 0.00 67 1014.7
20260503180241 58 193 1.0 4.0 0.00 0.00 0.00 66 1014.7
20260503175240 59 73 2.0 3.0 0.00 0.00 0.00 65 1014.5
20260503174240 59 335 2.0 3.0 0.00 0.00 0.00 63 1014.4
20260503173237 60 46 1.0 3.0 0.00 0.00 0.00 62 1014.6
20260503172237 60 87 0.0 4.0 0.00 0.00 0.00 62 1014.7
20260503171237 60 5 2.0 4.0 0.00 0.00 0.00 61 1014.9
20260503170237 61 315 2.0 4.0 0.00 0.00 0.00 58 1014.7
20260503150229 72 324 4.0 5.0 0.00 0.00 0.00 36 1013.0
20260503140225 72 38 0.0 3.0 0.00 0.00 0.00 43 1013.4
20260503131221 74 37 1.0 3.0 0.00 0.00 0.00 38 1013.8
20260503130221 72 0 0.0 2.0 0.00 0.00 0.00 39 1013.8
20260503120217 72 52 2.0 4.0 0.00 0.00 0.00 43 1014.5
20260503110214 70 318 4.0 4.0 0.00 0.00 0.00 45 1015.0
20260503100207 68 336 3.0 5.0 0.00 0.00 0.00 46 1015.6